Time,TemperatureF,DewpointF,PressureIn,WindDirection,WindDirectionDegrees,WindSpeedMPH,WindSpeedGustMPH,Humidity,HourlyPrecipIn,Conditions,Clouds,dailyrainin,SoftwareType,DateUTC
2013-12-14 00:01:00,9.9,5.5,30.35,NE,49,1.1,0.0,82,0.00,CLR,,0.00,WeatherDisplay:10.37,2013-12-14 05:01:00,
2013-12-14 00:02:00,9.9,5.5,30.34,NE,48,0.0,0.0,82,0.00,CLR,,0.00,WeatherDisplay:10.37,2013-12-14 05:02:00,
2013-12-14 00:05:00,9.9,5.5,30.35,ENE,57,3.5,3.5,82,0.00,CLR,,0.00,WeatherDisplay:10.37,2013-12-14 05:05:00,
2013-12-14 00:08:00,9.9,5.5,30.34,NE,52,3.5,3.5,82,0.00,CLR,,0.00,WeatherDisplay:10.37,2013-12-14 05:08:00,
2013-12-14 00:11:00,9.9,5.5,30.34,ENE,59,3.5,3.5,82,0.00,CLR,,0.00,WeatherDisplay:10.37,2013-12-14 05:11:00,
2013-12-14 00:16:00,9.8,5.4,30.34,NE,52,0.0,0.0,82,0.00,CLR,,0.00,WeatherDisplay:10.37,2013-12-14 05:16:00,
2013-12-14 00:21:00,9.7,5.3,30.34,NE,50,0.0,0.0,82,0.00,CLR,,0.00,WeatherDisplay:10.37,2013-12-14 05:21:00,
2013-12-14 00:26:00,9.8,5.4,30.34,ENE,63,0.0,0.0,82,0.00,CLR,,0.00,WeatherDisplay:10.37,2013-12-14 05:26:00,
2013-12-14 00:31:00,9.8,5.4,30.34,ENE,61,0.0,0.0,82,0.00,CLR,,0.00,WeatherDisplay:10.37,2013-12-14 05:31:00,
2013-12-14 00:36:00,9.8,5.7,30.34,NE,55,4.6,4.6,83,0.00,CLR,,0.00,WeatherDisplay:10.37,2013-12-14 05:36:00,
2013-12-14 00:41:00,9.9,5.8,30.33,NE,55,1.1,0.0,83,0.00,CLR,,0.00,WeatherDisplay:10.37,2013-12-14 05:41:00,
2013-12-14 00:46:00,9.9,5.8,30.33,NE,53,0.0,0.0,83,0.00,CLR,,0.00,WeatherDisplay:10.37,2013-12-14 05:46:00,
2013-12-14 00:51:00,9.9,5.8,30.33,NE,53,3.5,3.5,83,0.00,CLR,,0.00,WeatherDisplay:10.37,2013-12-14 05:51:00,
2013-12-14 00:56:00,9.9,5.8,30.33,NE,56,2.3,2.3,83,0.00,CLR,,0.00,WeatherDisplay:10.37,2013-12-14 05:56:00,
2013-12-14 01:01:00,9.9,5.8,30.33,NE,54,3.5,3.5,83,0.00,CLR,,0.00,WeatherDisplay:10.37,2013-12-14 06:01:00,
2013-12-14 01:06:00,9.9,5.8,30.33,NE,50,0.0,0.0,83,0.00,CLR,,0.00,WeatherDisplay:10.37,2013-12-14 06:06:00,
2013-12-14 01:11:00,9.9,5.8,30.33,NE,51,3.5,3.5,83,0.00,CLR,,0.00,WeatherDisplay:10.37,2013-12-14 06:11:00,
2013-12-14 01:16:00,9.9,5.8,30.33,NE,44,3.5,3.5,83,0.00,CLR,,0.00,WeatherDisplay:10.37,2013-12-14 06:16:00,
2013-12-14 01:21:00,9.9,5.8,30.33,ENE,60,3.5,3.5,83,0.00,CLR,,0.00,WeatherDisplay:10.37,2013-12-14 06:21:00,
2013-12-14 01:26:00,9.9,5.8,30.33,ENE,60,0.0,0.0,83,0.00,CLR,,0.00,WeatherDisplay:10.37,2013-12-14 06:26:00,
2013-12-14 01:31:00,9.9,6.0,30.32,ENE,60,2.0,2.0,84,0.00,CLR,,0.00,WeatherDisplay:10.37,2013-12-14 06:31:00,
2013-12-14 01:36:00,9.9,6.0,30.32,ENE,59,3.5,3.5,84,0.00,CLR,,0.00,WeatherDisplay:10.37,2013-12-14 06:36:00,
2013-12-14 01:41:00,9.9,5.8,30.33,NE,56,5.8,5.8,83,0.00,CLR,,0.00,WeatherDisplay:10.37,2013-12-14 06:41:00,
2013-12-14 01:46:00,10.0,6.1,30.32,NE,56,3.5,3.5,84,0.00,CLR,,0.00,WeatherDisplay:10.37,2013-12-14 06:46:00,
2013-12-14 01:51:00,10.0,6.1,30.32,NE,56,2.3,2.3,84,0.00,CLR,,0.00,WeatherDisplay:10.37,2013-12-14 06:51:00,
2013-12-14 01:56:00,10.1,6.2,30.32,NE,53,3.5,3.5,84,0.00,CLR,,0.00,WeatherDisplay:10.37,2013-12-14 06:56:00,
2013-12-14 02:01:00,10.2,6.3,30.32,ENE,63,4.6,4.6,84,0.00,CLR,,0.00,WeatherDisplay:10.37,2013-12-14 07:01:00,
2013-12-14 02:06:00,10.2,6.3,30.32,ENE,59,1.1,0.0,84,0.00,CLR,,0.00,WeatherDisplay:10.37,2013-12-14 07:06:00,
2013-12-14 02:11:00,10.2,6.6,30.32,NE,56,2.0,2.0,85,0.00,CLR,,0.00,WeatherDisplay:10.37,2013-12-14 07:11:00,
2013-12-14 02:16:00,10.2,6.6,30.32,ENE,59,1.1,1.1,85,0.00,CLR,,0.00,WeatherDisplay:10.37,2013-12-14 07:16:00,
2013-12-14 02:21:00,10.2,6.6,30.32,ENE,57,0.0,0.0,85,0.00,CLR,,0.00,WeatherDisplay:10.37,2013-12-14 07:21:00,
2013-12-14 02:26:00,10.2,6.6,30.32,ENE,57,3.5,3.5,85,0.00,CLR,,0.00,WeatherDisplay:10.37,2013-12-14 07:26:00,
2013-12-14 02:31:00,10.3,6.9,30.32,ENE,57,3.5,3.5,86,0.00,CLR,,0.00,WeatherDisplay:10.37,2013-12-14 07:31:00,
2013-12-14 02:36:00,10.3,6.9,30.31,ENE,61,3.5,3.5,86,0.00,CLR,,0.00,WeatherDisplay:10.37,2013-12-14 07:36:00,
2013-12-14 02:41:00,10.3,6.9,30.31,ENE,61,2.3,2.3,86,0.00,CLR,,0.00,WeatherDisplay:10.37,2013-12-14 07:41:00,
2013-12-14 02:46:00,10.4,7.3,30.31,ENE,59,3.0,3.0,87,0.00,CLR,,0.00,WeatherDisplay:10.37,2013-12-14 07:46:00,
2013-12-14 02:51:00,10.4,7.3,30.31,ENE,63,0.0,0.0,87,0.00,CLR,,0.00,WeatherDisplay:10.37,2013-12-14 07:51:00,
2013-12-14 02:56:00,10.4,7.3,30.31,ENE,61,2.0,2.0,87,0.00,CLR,,0.00,WeatherDisplay:10.37,2013-12-14 07:56:00,
2013-12-14 03:02:00,10.5,7.4,30.31,ENE,58,6.0,6.0,87,0.00,CLR,,0.00,WeatherDisplay:10.37,2013-12-14 08:02:00,
2013-12-14 03:07:00,10.5,7.4,30.31,ENE,61,3.5,3.5,87,0.00,CLR,,0.00,WeatherDisplay:10.37,2013-12-14 08:07:00,
2013-12-14 03:12:00,10.6,7.5,30.31,NE,53,3.5,3.5,87,0.00,CLR,,0.00,WeatherDisplay:10.37,2013-12-14 08:12:00,
2013-12-14 03:17:00,10.7,7.6,30.31,NE,45,0.0,0.0,87,0.00,CLR,,0.00,WeatherDisplay:10.37,2013-12-14 08:17:00,
2013-12-14 03:22:00,10.8,7.7,30.31,NE,45,1.1,1.1,87,0.00,CLR,,0.00,WeatherDisplay:10.37,2013-12-14 08:22:00,
2013-12-14 03:27:00,10.9,7.8,30.31,NE,45,0.0,0.0,87,0.00,CLR,,0.00,WeatherDisplay:10.37,2013-12-14 08:27:00,
2013-12-14 03:32:00,11.0,7.9,30.31,NNE,32,3.5,3.5,87,0.00,CLR,,0.00,WeatherDisplay:10.37,2013-12-14 08:32:00,
2013-12-14 03:37:00,11.0,7.9,30.31,NE,34,2.3,2.3,87,0.00,CLR,,0.00,WeatherDisplay:10.37,2013-12-14 08:37:00,
2013-12-14 03:42:00,11.0,7.9,30.31,NE,39,1.0,1.0,87,0.00,CLR,,0.00,WeatherDisplay:10.37,2013-12-14 08:42:00,
2013-12-14 03:47:00,11.0,7.9,30.30,ENE,61,4.6,4.6,87,0.00,CLR,,0.00,WeatherDisplay:10.37,2013-12-14 08:47:00,
2013-12-14 03:52:00,11.1,8.2,30.30,ENE,65,3.5,0.0,88,0.00,CLR,,0.00,WeatherDisplay:10.37,2013-12-14 08:52:00,
2013-12-14 03:57:00,11.2,8.3,30.30,ENE,65,1.1,1.1,88,0.00,CLR,,0.00,WeatherDisplay:10.37,2013-12-14 08:57:00,
2013-12-14 04:02:00,11.2,8.3,30.30,ENE,57,4.6,4.6,88,0.00,CLR,,0.00,WeatherDisplay:10.37,2013-12-14 09:02:00,
2013-12-14 04:07:00,11.3,8.4,30.30,ENE,58,2.0,2.0,88,0.00,CLR,,0.00,WeatherDisplay:10.37,2013-12-14 09:07:00,
2013-12-14 04:12:00,11.3,8.4,30.30,ENE,59,0.0,0.0,88,0.00,CLR,,0.00,WeatherDisplay:10.37,2013-12-14 09:12:00,
2013-12-14 04:17:00,11.4,8.5,30.30,ENE,59,0.0,0.0,88,0.00,CLR,,0.00,WeatherDisplay:10.37,2013-12-14 09:17:00,
2013-12-14 04:22:00,11.4,8.5,30.30,ENE,57,0.0,0.0,88,0.00,CLR,,0.00,WeatherDisplay:10.37,2013-12-14 09:22:00,
2013-12-14 04:27:00,11.5,8.6,30.29,ENE,58,2.3,2.3,88,0.00,CLR,,0.00,WeatherDisplay:10.37,2013-12-14 09:27:00,
2013-12-14 04:32:00,11.6,9.0,30.30,ENE,60,2.3,0.0,89,0.00,CLR,,0.00,WeatherDisplay:10.37,2013-12-14 09:32:00,
2013-12-14 04:37:00,11.7,9.1,30.29,ENE,58,3.5,3.5,89,0.00,CLR,,0.00,WeatherDisplay:10.37,2013-12-14 09:37:00,
2013-12-14 04:42:00,11.7,9.1,30.29,ENE,57,0.0,0.0,89,0.00,CLR,,0.00,WeatherDisplay:10.37,2013-12-14 09:42:00,
2013-12-14 04:47:00,11.8,9.2,30.29,NE,56,0.0,0.0,89,0.00,CLR,,0.00,WeatherDisplay:10.37,2013-12-14 09:47:00,
2013-12-14 04:52:00,11.9,9.3,30.29,ENE,57,4.6,4.6,89,0.00,CLR,,0.00,WeatherDisplay:10.37,2013-12-14 09:52:00,
2013-12-14 04:57:00,11.9,9.3,30.29,ENE,57,0.0,0.0,89,0.00,CLR,,0.00,WeatherDisplay:10.37,2013-12-14 09:57:00,
2013-12-14 05:02:00,12.0,9.4,30.28,NE,56,2.3,0.0,89,0.00,CLR,,0.00,WeatherDisplay:10.37,2013-12-14 10:02:00,
2013-12-14 05:07:00,12.1,9.5,30.28,ENE,61,3.0,3.0,89,0.00,CLR,,0.00,WeatherDisplay:10.37,2013-12-14 10:07:00,
2013-12-14 05:12:00,12.1,9.5,30.28,ENE,61,0.0,0.3,89,0.00,CLR,,0.00,WeatherDisplay:10.37,2013-12-14 10:12:00,
2013-12-14 05:17:00,12.2,9.6,30.28,ENE,61,0.0,0.1,89,0.00,CLR,,0.00,WeatherDisplay:10.37,2013-12-14 10:17:00,
2013-12-14 05:22:00,12.3,9.7,30.28,ENE,60,1.1,0.0,89,0.00,CLR,,0.00,WeatherDisplay:10.37,2013-12-14 10:22:00,
2013-12-14 05:27:00,12.3,9.7,30.28,ENE,63,0.0,0.0,89,0.00,CLR,,0.00,WeatherDisplay:10.37,2013-12-14 10:27:00,
2013-12-14 05:32:00,12.4,9.8,30.28,ENE,63,0.0,0.0,89,0.00,CLR,,0.00,WeatherDisplay:10.37,2013-12-14 10:32:00,
2013-12-14 05:37:00,12.5,9.9,30.28,ENE,61,3.5,3.5,89,0.00,CLR,,0.00,WeatherDisplay:10.37,2013-12-14 10:37:00,
2013-12-14 05:42:00,12.6,10.0,30.28,ENE,61,0.0,0.0,89,0.00,CLR,,0.00,WeatherDisplay:10.37,2013-12-14 10:42:00,
2013-12-14 05:47:00,12.6,10.0,30.28,ENE,61,3.5,3.5,89,0.00,CLR,,0.00,WeatherDisplay:10.37,2013-12-14 10:47:00,
2013-12-14 05:52:00,12.7,10.3,30.27,ENE,62,3.0,3.0,90,0.00,CLR,,0.00,WeatherDisplay:10.37,2013-12-14 10:52:00,
2013-12-14 05:57:00,12.7,10.3,30.27,ENE,61,3.5,3.5,90,0.00,CLR,,0.00,WeatherDisplay:10.37,2013-12-14 10:57:00,
2013-12-14 06:02:00,12.8,10.4,30.27,ENE,60,4.0,4.0,90,0.00,CLR,,0.00,WeatherDisplay:10.37,2013-12-14 11:02:00,
2013-12-14 06:07:00,12.8,10.4,30.27,ENE,61,2.3,2.3,90,0.00,CLR,,0.00,WeatherDisplay:10.37,2013-12-14 11:07:00,
2013-12-14 06:12:00,12.9,10.5,30.27,ENE,60,0.0,0.2,90,0.00,CLR,,0.00,WeatherDisplay:10.37,2013-12-14 11:12:00,
2013-12-14 06:17:00,13.0,10.6,30.26,ENE,59,2.0,2.0,90,0.00,CLR,,0.00,WeatherDisplay:10.37,2013-12-14 11:17:00,
2013-12-14 06:22:00,13.1,10.7,30.26,ENE,58,1.1,0.0,90,0.00,CLR,,0.00,WeatherDisplay:10.37,2013-12-14 11:22:00,
2013-12-14 06:27:00,13.3,10.9,30.26,ENE,60,1.1,0.0,90,0.00,CLR,,0.00,WeatherDisplay:10.37,2013-12-14 11:27:00,
2013-12-14 06:32:00,13.4,11.0,30.26,ENE,59,1.1,0.0,90,0.00,CLR,,0.00,WeatherDisplay:10.37,2013-12-14 11:32:00,
2013-12-14 06:37:00,13.6,11.2,30.26,ENE,65,2.3,0.0,90,0.00,CLR,,0.00,WeatherDisplay:10.37,2013-12-14 11:37:00,
2013-12-14 06:42:00,14.0,11.6,30.26,ENE,59,0.0,0.0,90,0.00,CLR,,0.00,WeatherDisplay:10.37,2013-12-14 11:42:00,
2013-12-14 06:47:00,14.6,12.5,30.26,ENE,63,10.4,10.4,91,0.00,CLR,,0.00,WeatherDisplay:10.37,2013-12-14 11:47:00,
2013-12-14 06:52:00,15.3,13.1,30.26,ENE,75,5.0,5.0,91,0.00,CLR,,0.00,WeatherDisplay:10.37,2013-12-14 11:52:00,
2013-12-14 06:57:00,15.6,13.2,30.26,ENE,63,8.1,8.1,90,0.00,CLR,,0.00,WeatherDisplay:10.37,2013-12-14 11:57:00,
2013-12-14 07:02:00,15.8,13.4,30.26,ESE,102,4.6,4.6,90,0.00,CLR,,0.00,WeatherDisplay:10.37,2013-12-14 12:02:00,
2013-12-14 07:07:00,15.9,13.2,30.26,East,100,5.8,5.8,89,0.00,CLR,,0.00,WeatherDisplay:10.37,2013-12-14 12:07:00,
2013-12-14 07:12:00,16.0,13.3,30.26,East,101,3.5,3.5,89,0.00,CLR,,0.00,WeatherDisplay:10.37,2013-12-14 12:12:00,
2013-12-14 07:17:00,16.0,13.3,30.26,East,101,3.5,3.5,89,0.00,CLR,,0.00,WeatherDisplay:10.37,2013-12-14 12:17:00,
2013-12-14 07:22:00,16.1,13.2,30.27,East,96,4.6,4.6,88,0.00,CLR,,0.00,WeatherDisplay:10.37,2013-12-14 12:22:00,
2013-12-14 07:27:00,16.1,13.2,30.26,ENE,59,10.4,10.4,88,0.00,CLR,,0.00,WeatherDisplay:10.37,2013-12-14 12:27:00,
2013-12-14 07:32:00,16.1,13.2,30.26,East,82,3.5,3.5,88,0.00,CLR,,0.00,WeatherDisplay:10.37,2013-12-14 12:32:00,
2013-12-14 07:37:00,16.1,13.4,30.26,ESE,123,6.9,6.9,89,0.00,CLR,,0.00,WeatherDisplay:10.37,2013-12-14 12:37:00,
2013-12-14 07:42:00,16.1,13.4,30.27,ENE,78,9.0,9.0,89,0.00,CLR,,0.00,WeatherDisplay:10.37,2013-12-14 12:42:00,
2013-12-14 07:47:00,16.1,13.4,30.26,ENE,69,10.0,10.0,89,0.00,CLR,,0.00,WeatherDisplay:10.37,2013-12-14 12:47:00,
2013-12-14 07:52:00,16.0,13.3,30.27,ENE,78,7.0,7.0,89,0.00,CLR,,0.00,WeatherDisplay:10.37,2013-12-14 12:52:00,
2013-12-14 07:57:00,16.1,13.4,30.27,East,84,4.6,4.6,89,0.00,CLR,,0.00,WeatherDisplay:10.37,2013-12-14 12:57:00,
2013-12-14 08:02:00,16.1,13.4,30.26,ESE,107,6.9,6.9,89,0.00,CLR,,0.00,WeatherDisplay:10.37,2013-12-14 13:02:00,
2013-12-14 08:07:00,16.1,13.4,30.26,ENE,78,2.0,2.0,89,0.00,CLR,,0.00,WeatherDisplay:10.37,2013-12-14 13:07:00,
2013-12-14 08:12:00,16.1,13.7,30.26,ENE,63,9.2,9.2,90,0.00,CLR,,0.00,WeatherDisplay:10.37,2013-12-14 13:12:00,
2013-12-14 08:17:00,16.1,13.7,30.26,ENE,76,5.0,5.0,90,0.00,CLR,,0.00,WeatherDisplay:10.37,2013-12-14 13:17:00,
2013-12-14 08:22:00,16.1,13.7,30.25,East,82,5.8,5.8,90,0.00,CLR,,0.00,WeatherDisplay:10.37,2013-12-14 13:22:00,
2013-12-14 08:27:00,16.1,13.7,30.26,ENE,75,9.2,9.2,90,0.00,CLR,,0.00,WeatherDisplay:10.37,2013-12-14 13:27:00,
2013-12-14 08:32:00,16.1,13.7,30.25,East,94,6.9,6.9,90,0.00,CLR,,0.00,WeatherDisplay:10.37,2013-12-14 13:32:00,
2013-12-14 08:37:00,16.2,13.8,30.25,East,81,12.7,12.7,90,0.00,CLR,,0.00,WeatherDisplay:10.37,2013-12-14 13:37:00,
2013-12-14 08:42:00,16.2,13.8,30.25,ENE,65,2.3,2.3,90,0.00,CLR,,0.00,WeatherDisplay:10.37,2013-12-14 13:42:00,
2013-12-14 08:47:00,16.3,13.9,30.25,ENE,57,9.2,9.2,90,0.00,CLR,,0.00,WeatherDisplay:10.37,2013-12-14 13:47:00,
2013-12-14 08:52:00,16.3,13.9,30.25,ENE,64,7.0,7.0,90,0.00,CLR,,0.00,WeatherDisplay:10.37,2013-12-14 13:52:00,
2013-12-14 08:57:00,16.4,14.0,30.25,ENE,72,3.5,3.5,90,0.00,CLR,,0.00,WeatherDisplay:10.37,2013-12-14 13:57:00,
2013-12-14 09:02:00,16.5,14.1,30.24,ENE,69,11.5,11.5,90,0.00,CLR,,0.00,WeatherDisplay:10.37,2013-12-14 14:02:00,
2013-12-14 09:07:00,16.6,14.2,30.24,ENE,59,3.5,3.5,90,0.00,CLR,,0.00,WeatherDisplay:10.37,2013-12-14 14:07:00,
2013-12-14 09:12:00,16.6,14.2,30.24,ENE,67,8.1,8.1,90,0.00,CLR,,0.00,WeatherDisplay:10.37,2013-12-14 14:12:00,
2013-12-14 09:17:00,16.6,14.2,30.24,East,94,6.9,6.9,90,0.00,CLR,,0.00,WeatherDisplay:10.37,2013-12-14 14:17:00,
2013-12-14 09:22:00,16.6,14.2,30.24,ENE,69,4.6,4.6,90,0.00,CLR,,0.00,WeatherDisplay:10.37,2013-12-14 14:22:00,
2013-12-14 09:27:00,16.7,14.3,30.24,ENE,75,11.5,11.5,90,0.00,CLR,,0.00,WeatherDisplay:10.37,2013-12-14 14:27:00,
2013-12-14 09:32:00,16.7,14.3,30.24,East,84,15.0,15.0,90,0.00,CLR,,0.00,WeatherDisplay:10.37,2013-12-14 14:32:00,
2013-12-14 09:37:00,16.8,14.1,30.23,East,80,9.2,9.2,89,0.00,CLR,,0.00,WeatherDisplay:10.37,2013-12-14 14:37:00,
2013-12-14 09:42:00,16.9,14.2,30.24,East,94,3.5,3.5,89,0.00,CLR,,0.00,WeatherDisplay:10.37,2013-12-14 14:42:00,
2013-12-14 09:47:00,17.0,14.3,30.24,ENE,63,4.0,4.0,89,0.00,CLR,,0.00,WeatherDisplay:10.37,2013-12-14 14:47:00,
2013-12-14 09:52:00,17.2,14.5,30.23,ENE,72,9.2,9.2,89,0.00,CLR,,0.00,WeatherDisplay:10.37,2013-12-14 14:52:00,
2013-12-14 09:57:00,17.2,14.5,30.23,East,90,9.2,9.2,89,0.00,CLR,,0.00,WeatherDisplay:10.37,2013-12-14 14:57:00,
2013-12-14 10:02:00,17.2,14.5,30.23,ENE,60,13.8,13.8,89,0.00,CLR,,0.00,WeatherDisplay:10.37,2013-12-14 15:02:00,
2013-12-14 10:07:00,17.2,14.5,30.23,East,90,4.6,4.6,89,0.00,CLR,,0.00,WeatherDisplay:10.37,2013-12-14 15:07:00,
2013-12-14 10:12:00,17.2,14.5,30.23,ENE,57,7.0,7.0,89,0.00,CLR,,0.00,WeatherDisplay:10.37,2013-12-14 15:12:00,
2013-12-14 10:17:00,17.3,14.6,30.23,ENE,61,7.0,7.0,89,0.00,CLR,,0.00,WeatherDisplay:10.37,2013-12-14 15:17:00,
2013-12-14 10:22:00,17.3,14.6,30.23,East,80,4.6,4.6,89,0.00,CLR,,0.00,WeatherDisplay:10.37,2013-12-14 15:22:00,
2013-12-14 10:27:00,17.3,14.6,30.23,NNE,30,6.9,6.9,89,0.00,CLR,,0.00,WeatherDisplay:10.37,2013-12-14 15:27:00,
2013-12-14 10:32:00,17.3,14.6,30.23,East,82,11.5,11.5,89,0.00,CLR,,0.00,WeatherDisplay:10.37,2013-12-14 15:32:00,
2013-12-14 10:37:00,17.3,14.6,30.23,ENE,78,11.5,11.5,89,0.00,CLR,,0.00,WeatherDisplay:10.37,2013-12-14 15:37:00,
2013-12-14 10:42:00,17.2,14.5,30.22,ENE,69,11.5,11.5,89,0.00,CLR,,0.00,WeatherDisplay:10.37,2013-12-14 15:42:00,
2013-12-14 10:47:00,17.2,14.5,30.21,ENE,68,11.5,11.5,89,0.00,CLR,,0.00,WeatherDisplay:10.37,2013-12-14 15:47:00,
2013-12-14 10:52:00,17.2,14.5,30.20,ENE,59,6.9,7.7,89,0.00,CLR,,0.00,WeatherDisplay:10.37,2013-12-14 15:52:00,
2013-12-14 10:57:00,17.2,14.3,30.20,ENE,65,9.2,9.2,88,0.00,CLR,,0.00,WeatherDisplay:10.37,2013-12-14 15:57:00,
2013-12-14 11:02:00,17.3,14.4,30.20,ENE,74,6.9,6.9,88,0.00,CLR,,0.00,WeatherDisplay:10.37,2013-12-14 16:02:00,
2013-12-14 11:07:00,17.3,14.6,30.19,ENE,58,11.5,11.5,89,0.00,CLR,,0.00,WeatherDisplay:10.37,2013-12-14 16:07:00,
2013-12-14 11:12:00,17.4,14.7,30.18,ENE,57,4.6,4.6,89,0.00,CLR,,0.00,WeatherDisplay:10.37,2013-12-14 16:12:00,
2013-12-14 11:17:00,17.5,14.8,30.18,ENE,69,10.4,10.4,89,0.00,CLR,,0.00,WeatherDisplay:10.37,2013-12-14 16:17:00,
2013-12-14 11:22:00,17.6,14.9,30.18,East,84,11.5,11.5,89,0.00,CLR,,0.00,WeatherDisplay:10.37,2013-12-14 16:22:00,
2013-12-14 11:27:00,17.5,14.8,30.18,East,88,11.5,11.5,89,0.00,CLR,,0.00,WeatherDisplay:10.37,2013-12-14 16:27:00,
2013-12-14 11:32:00,17.5,14.8,30.18,ENE,76,18.4,18.4,89,0.00,CLR,,0.00,WeatherDisplay:10.37,2013-12-14 16:32:00,
2013-12-14 11:37:00,17.6,14.9,30.17,ESE,114,6.9,6.9,89,0.00,CLR,,0.00,WeatherDisplay:10.37,2013-12-14 16:37:00,
2013-12-14 11:42:00,17.5,14.6,30.17,ESE,102,11.5,11.5,88,0.00,CLR,,0.00,WeatherDisplay:10.37,2013-12-14 16:42:00,
2013-12-14 11:47:00,17.6,14.7,30.17,SE,125,6.0,6.0,88,0.00,CLR,,0.00,WeatherDisplay:10.37,2013-12-14 16:47:00,
2013-12-14 11:52:00,17.8,15.1,30.17,NE,48,8.0,8.0,89,0.00,CLR,,0.00,WeatherDisplay:10.37,2013-12-14 16:52:00,
2013-12-14 11:57:00,17.9,15.2,30.17,ESE,103,4.6,4.6,89,0.00,CLR,,0.00,WeatherDisplay:10.37,2013-12-14 16:57:00,
2013-12-14 12:02:00,17.8,14.8,30.17,NE,36,10.4,10.4,88,0.00,CLR,,0.00,WeatherDisplay:10.37,2013-12-14 17:02:00,
2013-12-14 12:07:00,17.7,14.8,30.16,NE,52,11.5,11.5,88,0.00,CLR,,0.00,WeatherDisplay:10.37,2013-12-14 17:07:00,
2013-12-14 12:12:00,17.7,14.8,30.16,ENE,65,6.9,6.9,88,0.00,CLR,,0.00,WeatherDisplay:10.37,2013-12-14 17:12:00,
2013-12-14 12:17:00,17.7,14.8,30.16,NNE,28,9.2,9.2,88,0.00,CLR,,0.00,WeatherDisplay:10.37,2013-12-14 17:17:00,
2013-12-14 12:22:00,17.5,14.6,30.15,ENE,57,15.0,15.0,88,0.00,CLR,,0.00,WeatherDisplay:10.37,2013-12-14 17:22:00,
2013-12-14 12:27:00,17.5,14.6,30.15,ENE,69,17.3,17.3,88,0.00,CLR,,0.00,WeatherDisplay:10.37,2013-12-14 17:27:00,
2013-12-14 12:32:00,17.5,14.6,30.14,East,84,3.5,3.5,88,0.00,CLR,,0.00,WeatherDisplay:10.37,2013-12-14 17:32:00,
2013-12-14 12:37:00,17.5,14.6,30.14,ENE,60,15.0,15.0,88,0.00,CLR,,0.00,WeatherDisplay:10.37,2013-12-14 17:37:00,
2013-12-14 12:42:00,17.5,14.8,30.13,ENE,66,9.2,9.2,89,0.00,CLR,,0.00,WeatherDisplay:10.37,2013-12-14 17:42:00,
2013-12-14 12:47:00,17.4,14.7,30.13,East,95,12.7,12.7,89,0.00,CLR,,0.00,WeatherDisplay:10.37,2013-12-14 17:47:00,
2013-12-14 12:52:00,17.4,14.7,30.13,ENE,59,9.2,9.2,89,0.00,CLR,,0.00,WeatherDisplay:10.37,2013-12-14 17:52:00,
2013-12-14 12:57:00,17.6,14.9,30.12,East,81,10.4,10.4,89,0.00,CLR,,0.00,WeatherDisplay:10.37,2013-12-14 17:57:00,
2013-12-14 13:02:00,17.7,15.0,30.12,NE,40,6.9,6.9,89,0.00,CLR,,0.00,WeatherDisplay:10.37,2013-12-14 18:02:00,
2013-12-14 13:07:00,17.7,15.0,30.11,NE,48,5.8,5.8,89,0.00,CLR,,0.00,WeatherDisplay:10.37,2013-12-14 18:07:00,
2013-12-14 13:12:00,17.7,15.0,30.10,East,82,4.6,4.6,89,0.00,CLR,,0.00,WeatherDisplay:10.37,2013-12-14 18:12:00,
2013-12-14 13:17:00,17.8,15.4,30.10,East,82,3.5,3.5,90,0.00,CLR,,0.00,WeatherDisplay:10.37,2013-12-14 18:17:00,
2013-12-14 13:22:00,17.9,15.2,30.10,East,79,11.5,11.5,89,0.00,CLR,,0.00,WeatherDisplay:10.37,2013-12-14 18:22:00,
2013-12-14 13:27:00,17.9,15.2,30.10,ENE,65,4.6,4.6,89,0.00,CLR,,0.00,WeatherDisplay:10.37,2013-12-14 18:27:00,
2013-12-14 13:32:00,17.9,15.2,30.09,ENE,76,6.0,6.2,89,0.00,CLR,,0.00,WeatherDisplay:10.37,2013-12-14 18:32:00,
2013-12-14 13:37:00,17.9,15.2,30.08,East,92,13.8,13.8,89,0.00,CLR,,0.00,WeatherDisplay:10.37,2013-12-14 18:37:00,
2013-12-14 13:42:00,18.0,15.3,30.08,NE,55,9.2,9.2,89,0.00,CLR,,0.00,WeatherDisplay:10.37,2013-12-14 18:42:00,
2013-12-14 13:47:00,18.0,15.3,30.08,East,80,5.8,5.8,89,0.00,CLR,,0.00,WeatherDisplay:10.37,2013-12-14 18:47:00,
2013-12-14 13:52:00,18.1,15.4,30.08,ENE,59,3.5,3.5,89,0.00,CLR,,0.00,WeatherDisplay:10.37,2013-12-14 18:52:00,
2013-12-14 13:57:00,18.1,15.4,30.07,ENE,68,9.2,9.2,89,0.00,CLR,,0.00,WeatherDisplay:10.37,2013-12-14 18:57:00,
2013-12-14 14:02:00,18.0,15.3,30.07,ESE,111,12.7,12.7,89,0.00,CLR,,0.00,WeatherDisplay:10.37,2013-12-14 19:02:00,
2013-12-14 14:07:00,18.0,15.3,30.07,ENE,63,18.4,18.4,89,0.00,CLR,,0.00,WeatherDisplay:10.37,2013-12-14 19:07:00,
2013-12-14 14:12:00,18.0,15.3,30.06,NE,43,13.0,13.0,89,0.00,CLR,,0.00,WeatherDisplay:10.37,2013-12-14 19:12:00,
2013-12-14 14:17:00,17.9,15.2,30.06,ENE,58,6.9,6.9,89,0.00,CLR,,0.00,WeatherDisplay:10.37,2013-12-14 19:17:00,
2013-12-14 14:22:00,18.0,15.3,30.05,East,97,10.4,10.4,89,0.00,CLR,,0.00,WeatherDisplay:10.37,2013-12-14 19:22:00,
2013-12-14 14:27:00,18.1,15.4,30.05,NE,42,9.2,9.2,89,0.00,CLR,,0.00,WeatherDisplay:10.37,2013-12-14 19:27:00,
2013-12-14 14:32:00,18.2,15.5,30.05,ENE,63,6.9,6.9,89,0.00,CLR,,0.00,WeatherDisplay:10.37,2013-12-14 19:32:00,
2013-12-14 14:37:00,18.3,15.6,30.05,ENE,72,9.2,9.2,89,0.00,CLR,,0.00,WeatherDisplay:10.37,2013-12-14 19:37:00,
2013-12-14 14:42:00,18.4,15.7,30.04,NE,49,2.3,2.3,89,0.00,CLR,,0.00,WeatherDisplay:10.37,2013-12-14 19:42:00,
2013-12-14 14:47:00,18.5,15.8,30.04,NE,46,10.4,10.4,89,0.00,CLR,,0.00,WeatherDisplay:10.37,2013-12-14 19:47:00,
2013-12-14 14:52:00,18.5,15.8,30.04,ENE,74,5.0,5.0,89,0.00,CLR,,0.00,WeatherDisplay:10.37,2013-12-14 19:52:00,
2013-12-14 14:57:00,18.6,15.9,30.04,NNE,29,8.1,8.1,89,0.00,CLR,,0.00,WeatherDisplay:10.37,2013-12-14 19:57:00,
2013-12-14 15:02:00,18.6,16.2,30.03,NE,55,3.5,3.5,90,0.00,CLR,,0.00,WeatherDisplay:10.37,2013-12-14 20:02:00,
2013-12-14 15:07:00,18.6,16.2,30.03,NNE,29,5.8,5.8,90,0.00,CLR,,0.00,WeatherDisplay:10.37,2013-12-14 20:07:00,
2013-12-14 15:12:00,18.7,16.3,30.02,East,82,5.8,6.5,90,0.00,CLR,,0.00,WeatherDisplay:10.37,2013-12-14 20:12:00,
2013-12-14 15:17:00,18.6,16.2,30.02,ENE,67,11.5,11.5,90,0.00,CLR,,0.00,WeatherDisplay:10.37,2013-12-14 20:17:00,
2013-12-14 15:22:00,18.5,16.1,30.02,ENE,67,10.4,10.4,90,0.00,CLR,,0.00,WeatherDisplay:10.37,2013-12-14 20:22:00,
2013-12-14 15:27:00,18.5,16.1,30.02,East,86,3.5,3.5,90,0.00,CLR,,0.00,WeatherDisplay:10.37,2013-12-14 20:27:00,
2013-12-14 15:32:00,18.6,16.2,30.01,East,89,3.5,3.5,90,0.00,CLR,,0.00,WeatherDisplay:10.37,2013-12-14 20:32:00,
2013-12-14 15:37:00,18.6,16.2,30.01,East,101,5.8,5.8,90,0.00,CLR,,0.00,WeatherDisplay:10.37,2013-12-14 20:37:00,
2013-12-14 15:42:00,18.6,16.2,30.01,ENE,59,3.5,3.5,90,0.00,CLR,,0.00,WeatherDisplay:10.37,2013-12-14 20:42:00,
2013-12-14 15:47:00,18.7,16.3,30.01,East,80,5.8,5.8,90,0.00,CLR,,0.00,WeatherDisplay:10.37,2013-12-14 20:47:00,
2013-12-14 15:52:00,18.7,16.3,30.00,ENE,61,4.6,4.6,90,0.00,CLR,,0.00,WeatherDisplay:10.37,2013-12-14 20:52:00,
2013-12-14 15:57:00,18.7,16.3,30.01,NE,55,0.0,0.0,90,0.00,CLR,,0.00,WeatherDisplay:10.37,2013-12-14 20:57:00,
2013-12-14 16:02:00,18.8,16.4,30.00,NE,54,3.5,3.5,90,0.00,CLR,,0.00,WeatherDisplay:10.37,2013-12-14 21:02:00,
2013-12-14 16:07:00,18.7,16.3,30.00,ENE,57,4.6,4.6,90,0.00,CLR,,0.00,WeatherDisplay:10.37,2013-12-14 21:07:00,
2013-12-14 16:12:00,18.7,16.3,30.00,ENE,64,10.4,10.4,90,0.00,CLR,,0.00,WeatherDisplay:10.37,2013-12-14 21:12:00,
2013-12-14 16:17:00,18.6,16.2,30.00,ENE,65,3.5,3.5,90,0.00,CLR,,0.00,WeatherDisplay:10.37,2013-12-14 21:17:00,
2013-12-14 16:22:00,18.6,16.2,30.00,ENE,70,6.0,6.0,90,0.00,CLR,,0.00,WeatherDisplay:10.37,2013-12-14 21:22:00,
2013-12-14 16:27:00,18.7,16.3,30.00,NE,55,4.6,4.6,90,0.00,CLR,,0.00,WeatherDisplay:10.37,2013-12-14 21:27:00,
2013-12-14 16:32:00,18.7,16.3,29.99,ENE,65,3.5,3.5,90,0.00,CLR,,0.00,WeatherDisplay:10.37,2013-12-14 21:32:00,
2013-12-14 16:37:00,18.8,16.4,29.99,ENE,74,1.1,0.0,90,0.00,CLR,,0.00,WeatherDisplay:10.37,2013-12-14 21:37:00,
2013-12-14 16:42:00,18.8,16.6,29.99,ENE,61,4.0,4.0,91,0.00,CLR,,0.00,WeatherDisplay:10.37,2013-12-14 21:42:00,
2013-12-14 16:47:00,18.8,16.6,29.99,ENE,76,3.5,3.5,91,0.00,CLR,,0.00,WeatherDisplay:10.37,2013-12-14 21:47:00,
2013-12-14 16:52:00,18.8,16.6,29.99,ENE,75,3.5,3.5,91,0.00,CLR,,0.00,WeatherDisplay:10.37,2013-12-14 21:52:00,
2013-12-14 16:57:00,18.8,16.6,29.99,ENE,73,4.0,0.0,91,0.00,CLR,,0.00,WeatherDisplay:10.37,2013-12-14 21:57:00,
2013-12-14 17:02:00,18.9,16.7,29.99,ENE,72,0.0,0.0,91,0.00,CLR,,0.00,WeatherDisplay:10.37,2013-12-14 22:02:00,
2013-12-14 17:07:00,18.9,16.7,29.98,ENE,72,0.0,0.0,91,0.00,CLR,,0.00,WeatherDisplay:10.37,2013-12-14 22:07:00,
2013-12-14 17:12:00,18.9,17.0,29.98,ENE,72,2.3,2.3,92,0.00,CLR,,0.00,WeatherDisplay:10.37,2013-12-14 22:12:00,
2013-12-14 17:17:00,18.9,17.0,29.98,ENE,72,0.0,0.0,92,0.00,CLR,,0.00,WeatherDisplay:10.37,2013-12-14 22:17:00,
2013-12-14 17:22:00,18.9,17.0,29.98,ENE,71,0.0,0.0,92,0.00,CLR,,0.00,WeatherDisplay:10.37,2013-12-14 22:22:00,
2013-12-14 17:27:00,18.9,17.0,29.97,ENE,71,2.3,2.3,92,0.00,CLR,,0.00,WeatherDisplay:10.37,2013-12-14 22:27:00,
2013-12-14 17:32:00,19.0,17.1,29.97,ENE,72,0.0,0.0,92,0.00,CLR,,0.00,WeatherDisplay:10.37,2013-12-14 22:32:00,
2013-12-14 17:37:00,19.0,17.1,29.97,ENE,73,0.0,0.4,92,0.00,CLR,,0.00,WeatherDisplay:10.37,2013-12-14 22:37:00,
2013-12-14 17:42:00,19.0,17.1,29.97,ENE,73,0.0,0.2,92,0.00,CLR,,0.00,WeatherDisplay:10.37,2013-12-14 22:42:00,
2013-12-14 17:47:00,19.0,17.1,29.97,ENE,72,0.0,0.0,92,0.00,CLR,,0.00,WeatherDisplay:10.37,2013-12-14 22:47:00,
2013-12-14 17:52:00,19.1,17.2,29.96,ENE,72,0.0,0.0,92,0.00,CLR,,0.00,WeatherDisplay:10.37,2013-12-14 22:52:00,
2013-12-14 17:57:00,19.1,17.2,29.96,ENE,72,0.0,0.0,92,0.00,CLR,,0.00,WeatherDisplay:10.37,2013-12-14 22:57:00,
2013-12-14 18:02:00,19.1,17.2,29.96,ENE,72,0.0,0.0,92,0.00,CLR,,0.00,WeatherDisplay:10.37,2013-12-14 23:02:00,
2013-12-14 18:07:00,19.1,17.2,29.96,ENE,73,0.0,0.1,92,0.00,CLR,,0.00,WeatherDisplay:10.37,2013-12-14 23:07:00,
2013-12-14 18:12:00,19.1,17.2,29.96,ENE,72,0.0,0.0,92,0.00,CLR,,0.00,WeatherDisplay:10.37,2013-12-14 23:12:00,
2013-12-14 18:17:00,19.2,17.3,29.96,ENE,72,0.0,0.0,92,0.00,CLR,,0.00,WeatherDisplay:10.37,2013-12-14 23:17:00,
2013-12-14 18:22:00,19.1,17.2,29.96,ENE,73,0.0,0.0,92,0.00,CLR,,0.00,WeatherDisplay:10.37,2013-12-14 23:22:00,
2013-12-14 18:27:00,19.2,17.5,29.95,ENE,72,0.0,0.0,93,0.00,CLR,,0.00,WeatherDisplay:10.37,2013-12-14 23:27:00,
2013-12-14 18:32:00,19.2,17.5,29.95,ENE,72,0.0,0.0,93,0.00,CLR,,0.00,WeatherDisplay:10.37,2013-12-14 23:32:00,
2013-12-14 18:37:00,19.1,17.4,29.95,ENE,72,0.0,0.0,93,0.00,CLR,,0.00,WeatherDisplay:10.37,2013-12-14 23:37:00,
2013-12-14 18:42:00,19.2,17.5,29.95,ENE,73,0.0,0.0,93,0.00,CLR,,0.00,WeatherDisplay:10.37,2013-12-14 23:42:00,
2013-12-14 18:47:00,19.2,17.5,29.94,ENE,72,0.0,0.0,93,0.00,CLR,,0.00,WeatherDisplay:10.37,2013-12-14 23:47:00,
2013-12-14 18:52:00,19.2,17.5,29.94,ENE,73,0.0,0.0,93,0.00,CLR,,0.00,WeatherDisplay:10.37,2013-12-14 23:52:00,
2013-12-14 18:57:00,19.2,17.5,29.94,ENE,72,0.0,0.0,93,0.00,CLR,,0.00,WeatherDisplay:10.37,2013-12-14 23:57:00,
2013-12-14 19:02:00,19.2,17.3,29.93,ENE,72,0.0,0.0,92,0.00,CLR,,0.00,WeatherDisplay:10.37,2013-12-15 00:02:00,
2013-12-14 19:07:00,19.2,17.3,29.93,ENE,73,0.0,0.0,92,0.00,CLR,,0.00,WeatherDisplay:10.37,2013-12-15 00:07:00,
2013-12-14 19:12:00,19.2,17.5,29.93,ENE,72,0.0,0.0,93,0.00,CLR,,0.00,WeatherDisplay:10.37,2013-12-15 00:12:00,
2013-12-14 19:17:00,19.3,17.4,29.93,ENE,72,0.0,0.0,92,0.00,CLR,,0.00,WeatherDisplay:10.37,2013-12-15 00:17:00,
2013-12-14 19:22:00,19.2,17.5,29.93,ENE,73,0.0,0.0,93,0.00,CLR,,0.00,WeatherDisplay:10.37,2013-12-15 00:22:00,
2013-12-14 19:27:00,19.3,17.6,29.93,ENE,73,0.0,0.0,93,0.00,CLR,,0.00,WeatherDisplay:10.37,2013-12-15 00:27:00,
2013-12-14 19:32:00,19.3,17.6,29.93,ENE,73,0.0,0.0,93,0.00,CLR,,0.00,WeatherDisplay:10.37,2013-12-15 00:32:00,
2013-12-14 19:37:00,19.3,17.6,29.93,ENE,72,0.0,0.0,93,0.00,CLR,,0.00,WeatherDisplay:10.37,2013-12-15 00:37:00,
2013-12-14 19:42:00,19.3,17.6,29.93,ENE,72,0.0,0.0,93,0.00,CLR,,0.00,WeatherDisplay:10.37,2013-12-15 00:42:00,
2013-12-14 19:47:00,19.3,17.6,29.93,ENE,72,0.0,0.0,93,0.00,CLR,,0.00,WeatherDisplay:10.37,2013-12-15 00:47:00,
2013-12-14 19:52:00,19.3,17.6,29.93,ENE,72,0.0,0.0,93,0.00,CLR,,0.00,WeatherDisplay:10.37,2013-12-15 00:52:00,
2013-12-14 19:57:00,19.3,17.6,29.93,ENE,72,0.0,0.0,93,0.00,CLR,,0.00,WeatherDisplay:10.37,2013-12-15 00:57:00,
2013-12-14 20:02:00,19.3,17.6,29.92,ENE,72,0.0,0.0,93,0.00,CLR,,0.00,WeatherDisplay:10.37,2013-12-15 01:02:00,
2013-12-14 20:07:00,19.3,17.6,29.93,ENE,73,0.0,0.0,93,0.00,CLR,,0.00,WeatherDisplay:10.37,2013-12-15 01:07:00,
2013-12-14 20:12:00,19.3,17.6,29.93,ENE,73,0.0,0.0,93,0.00,CLR,,0.00,WeatherDisplay:10.37,2013-12-15 01:12:00,
2013-12-14 20:17:00,19.2,17.5,29.92,ENE,73,0.0,0.0,93,0.00,CLR,,0.00,WeatherDisplay:10.37,2013-12-15 01:17:00,
2013-12-14 20:22:00,19.3,17.6,29.92,ENE,72,0.0,0.0,93,0.00,CLR,,0.00,WeatherDisplay:10.37,2013-12-15 01:22:00,
2013-12-14 20:27:00,19.2,17.5,29.92,ENE,72,0.0,0.0,93,0.00,CLR,,0.00,WeatherDisplay:10.37,2013-12-15 01:27:00,
2013-12-14 20:32:00,19.3,17.6,29.92,ENE,73,0.0,0.0,93,0.00,CLR,,0.00,WeatherDisplay:10.37,2013-12-15 01:32:00,
2013-12-14 20:37:00,19.3,17.6,29.92,ENE,73,0.0,0.0,93,0.00,CLR,,0.00,WeatherDisplay:10.37,2013-12-15 01:37:00,
2013-12-14 20:42:00,19.2,17.5,29.91,ENE,73,0.0,0.0,93,0.00,CLR,,0.00,WeatherDisplay:10.37,2013-12-15 01:42:00,
2013-12-14 20:47:00,19.2,17.5,29.91,ENE,73,0.0,0.0,93,0.00,CLR,,0.00,WeatherDisplay:10.37,2013-12-15 01:47:00,
2013-12-14 20:52:00,19.2,17.5,29.91,ENE,72,0.0,0.0,93,0.00,CLR,,0.00,WeatherDisplay:10.37,2013-12-15 01:52:00,
2013-12-14 20:57:00,19.2,17.5,29.91,ENE,72,1.1,0.0,93,0.00,CLR,,0.00,WeatherDisplay:10.37,2013-12-15 01:57:00,
2013-12-14 21:02:00,19.2,17.5,29.90,ENE,73,0.0,0.0,93,0.00,CLR,,0.00,WeatherDisplay:10.37,2013-12-15 02:02:00,
2013-12-14 21:07:00,19.2,17.5,29.90,ENE,73,0.0,0.0,93,0.00,CLR,,0.00,WeatherDisplay:10.37,2013-12-15 02:07:00,
2013-12-14 21:12:00,19.2,17.5,29.90,ENE,72,0.0,0.0,93,0.00,CLR,,0.00,WeatherDisplay:10.37,2013-12-15 02:12:00,
2013-12-14 21:17:00,19.1,17.4,29.89,ENE,73,0.0,0.0,93,0.00,CLR,,0.00,WeatherDisplay:10.37,2013-12-15 02:17:00,
2013-12-14 21:22:00,18.9,17.2,29.89,ENE,73,0.0,0.0,93,0.00,CLR,,0.00,WeatherDisplay:10.37,2013-12-15 02:22:00,
2013-12-14 21:27:00,18.8,17.1,29.89,ENE,72,0.0,0.0,93,0.00,CLR,,0.00,WeatherDisplay:10.37,2013-12-15 02:27:00,
2013-12-14 21:32:00,18.6,16.7,29.89,ENE,72,0.0,0.0,92,0.00,CLR,,0.00,WeatherDisplay:10.37,2013-12-15 02:32:00,
2013-12-14 21:37:00,18.4,16.5,29.89,ENE,72,0.0,0.0,92,0.00,CLR,,0.00,WeatherDisplay:10.37,2013-12-15 02:37:00,
2013-12-14 21:42:00,18.1,16.2,29.89,ENE,73,0.0,0.0,92,0.00,CLR,,0.00,WeatherDisplay:10.37,2013-12-15 02:42:00,
2013-12-14 21:47:00,17.9,16.0,29.89,ENE,73,0.0,0.0,92,0.00,CLR,,0.00,WeatherDisplay:10.37,2013-12-15 02:47:00,
2013-12-14 21:52:00,17.7,15.8,29.89,ENE,72,0.0,0.0,92,0.00,CLR,,0.00,WeatherDisplay:10.37,2013-12-15 02:52:00,
2013-12-14 21:57:00,17.4,15.5,29.89,ENE,73,0.0,0.0,92,0.00,CLR,,0.00,WeatherDisplay:10.37,2013-12-15 02:57:00,
2013-12-14 22:02:00,17.2,15.3,29.89,ENE,73,0.0,0.0,92,0.00,CLR,,0.00,WeatherDisplay:10.37,2013-12-15 03:02:00,
2013-12-14 22:07:00,17.0,15.1,29.88,ENE,73,0.0,0.0,92,0.00,CLR,,0.00,WeatherDisplay:10.37,2013-12-15 03:07:00,
2013-12-14 22:12:00,17.0,15.1,29.88,ENE,72,0.0,0.0,92,0.00,CLR,,0.00,WeatherDisplay:10.37,2013-12-15 03:12:00,
2013-12-14 22:17:00,17.0,15.3,29.88,ENE,73,0.0,0.0,93,0.00,CLR,,0.00,WeatherDisplay:10.37,2013-12-15 03:17:00,
2013-12-14 22:22:00,17.0,15.3,29.88,ENE,73,0.0,0.0,93,0.00,CLR,,0.00,WeatherDisplay:10.37,2013-12-15 03:22:00,
2013-12-14 22:27:00,17.0,15.3,29.88,ENE,72,0.0,0.0,93,0.00,CLR,,0.00,WeatherDisplay:10.37,2013-12-15 03:27:00,
2013-12-14 22:32:00,17.0,15.3,29.88,ENE,73,0.0,0.0,93,0.00,CLR,,0.00,WeatherDisplay:10.37,2013-12-15 03:32:00,
2013-12-14 22:37:00,17.0,15.3,29.88,ENE,73,0.0,0.0,93,0.00,CLR,,0.00,WeatherDisplay:10.37,2013-12-15 03:37:00,
2013-12-14 22:42:00,17.0,15.3,29.87,ENE,73,0.0,0.0,93,0.00,CLR,,0.00,WeatherDisplay:10.37,2013-12-15 03:42:00,
2013-12-14 22:47:00,17.0,15.3,29.87,ENE,72,0.0,0.0,93,0.00,CLR,,0.00,WeatherDisplay:10.37,2013-12-15 03:47:00,
2013-12-14 22:52:00,17.0,15.3,29.87,ENE,73,0.0,0.0,93,0.00,CLR,,0.00,WeatherDisplay:10.37,2013-12-15 03:52:00,
2013-12-14 22:57:00,17.0,15.3,29.87,ENE,73,0.0,0.0,93,0.00,CLR,,0.00,WeatherDisplay:10.37,2013-12-15 03:57:00,
2013-12-14 23:02:00,17.0,15.3,29.86,ENE,73,0.0,0.0,93,0.00,CLR,,0.00,WeatherDisplay:10.37,2013-12-15 04:02:00,
2013-12-14 23:07:00,17.1,15.4,29.86,ENE,72,0.0,0.0,93,0.00,CLR,,0.00,WeatherDisplay:10.37,2013-12-15 04:07:00,
2013-12-14 23:12:00,17.3,15.6,29.86,ENE,73,0.0,0.0,93,0.00,CLR,,0.00,WeatherDisplay:10.37,2013-12-15 04:12:00,
2013-12-14 23:17:00,17.3,15.6,29.86,ENE,73,0.0,0.0,93,0.00,CLR,,0.00,WeatherDisplay:10.37,2013-12-15 04:17:00,
2013-12-14 23:22:00,17.3,15.6,29.86,ENE,72,0.0,0.0,93,0.00,CLR,,0.00,WeatherDisplay:10.37,2013-12-15 04:22:00,
2013-12-14 23:27:00,17.5,15.8,29.85,ENE,73,0.0,0.0,93,0.00,CLR,,0.00,WeatherDisplay:10.37,2013-12-15 04:27:00,
2013-12-14 23:32:00,17.6,15.9,29.85,ENE,73,0.0,0.0,93,0.00,CLR,,0.00,WeatherDisplay:10.37,2013-12-15 04:32:00,
2013-12-14 23:37:00,17.8,16.1,29.85,ENE,73,0.0,0.1,93,0.00,CLR,,0.00,WeatherDisplay:10.37,2013-12-15 04:37:00,
2013-12-14 23:42:00,17.9,16.2,29.85,ENE,72,0.0,0.0,93,0.00,CLR,,0.00,WeatherDisplay:10.37,2013-12-15 04:42:00,
2013-12-14 23:47:00,18.0,16.3,29.85,ENE,73,2.3,2.3,93,0.00,CLR,,0.00,WeatherDisplay:10.37,2013-12-15 04:47:00,
2013-12-14 23:52:00,18.0,16.3,29.85,ENE,72,0.0,0.0,93,0.00,CLR,,0.00,WeatherDisplay:10.37,2013-12-15 04:52:00,
2013-12-14 23:57:00,18.1,16.4,29.84,ENE,73,0.0,0.0,93,0.00,CLR,,0.00,WeatherDisplay:10.37,2013-12-15 04:57:00,